Regional Weather Roundup
Issued by NWS

Home | Current Version | Previous Version | Graphics & Text | Print | Product List | Glossary On
Versions: 1 2 3 4 5 6 7 8 9 10 11 12 13 14 15 16 17 18 19 20 21 22 23 24 25 26 27 28 29 30 31 32 33 34 35 36 37 38 39 40 41 42 43 44 45 46 47 48 49 50
000
ASUS43 KDMX 011004
RWRIA

WEATHER ROUNDUP FOR IOWA
NATIONAL WEATHER SERVICE DES MOINES IA
  ISSUED BY NWS QUAD CITIES IA IL
400 AM CST SUN MAR 01 2015

NOTE: "FAIR" INDICATES FEW OR NO CLOUDS BELOW 12,000 FEET WITH NO
SIGNIFICANT WEATHER AND/OR OBSTRUCTIONS TO VISIBILITY.

* - THESE STATIONS ARE NOT NWS STATIONS...THUS NOT UNDER NWS
QUALITY CONTROL.  THEY ALSO DO NOT REPORT WEATHER SUCH
AS PRECIPITATION OR FOG.

IAZ001>003-012>014-020>022-031>034-043>046-011100-
   NORTHWEST IOWA

CITY           SKY/WX    TMP DP  RH WIND       PRES   REMARKS
CARROLL *      PTCLDY    12  10  92 CALM      30.29F
CHEROKEE *     SUNNY     10   9  97 CALM      30.27F FOG
DENNISON *     PTCLDY    14  14 100 CALM      30.27F
LE MARS *      CLEAR     10   9  92 CALM      30.28S
ORANGE CITY *  PTCLDY    14  10  85 SW7       30.25S WCI   4
SHELDON *      PTCLDY    12  12 100 SW9       30.24S WCI   0
SIOUX CITY     PTCLDY    16  11  80 SW5       30.30S WCI   9
SPENCER        FAIR      14  10  84 SW13      30.25F WCI   0
STORM LAKE *   CLEAR     12   9  85 SW10      30.26F WCI  -1
$$

IAZ055>058-069>071-079>083-090>094-011100-
   SOUTHWEST IOWA

CITY           SKY/WX    TMP DP  RH WIND       PRES   REMARKS
ATLANTIC *     CLOUDY    21  16  79 SW6       30.32R WCI  14
AUDUBON *      PTCLDY    19  16  86 SW5       30.29F WCI  13
CLARINDA *     CLOUDY    21  19  93 CALM      30.35F
COUNCIL BLFS * CLOUDY    21  16  79 W7        30.30S WCI  13
CRESTON *      CLOUDY    19  18  93 W5        30.32S WCI  13
HARLAN *       CLOUDY    21  19  93 SW6       30.34S WCI  14
LAMONI         CLOUDY    19  17  92 CALM      30.33F
RED OAK *      CLOUDY    21  19  93 CALM      30.33S
SHENANDOAH *   CLOUDY    21  18  86 S3        30.35F
$$

IAZ047>049-059>061-072>074-084-011100-
   CENTRAL IOWA

CITY           SKY/WX    TMP DP  RH WIND       PRES   REMARKS
AMES           MOCLDY    16  13  88 S7        30.33F FOG     WCI   6
ANKENY *       CLOUDY    19  18  93 SE5       30.34F WCI  13
BOONE *        CLOUDY    19  16  86 SW5       30.29F WCI  13
CHARITON *     CLOUDY    18  16  93 CALM      30.34F
DES MOINES     FLURRIES  21  17  84 SW3       30.33F
GRINNELL *     FLURRIES  15  14  92 CALM      30.35S
KNOXVILLE *    CLOUDY    18  14  86 S6        30.32F WCI   9
MARSHALLTOWN   CLOUDY    16  14  92 S6        30.32F WCI   7
NEWTON *       CLOUDY    16  14  93 CALM      30.35S
PELLA *        FLURRIES  18  17  98 CALM      30.35F
PERRY *          N/A     21  18  90 SW8       30.32F WCI  11
$$

IAZ004>006-015-016-023>025-035-036-011100-
   NORTH CENTRAL IOWA

CITY           SKY/WX    TMP DP  RH WIND       PRES   REMARKS
ALGONA *       PTCLDY    10   9  92 S10       30.27F WCI  -3
CLARION *      CLOUDY     9   9 100 S8        30.29F FOG     WCI  -4
ESTHERVILLE    PTCLDY    13  10  88 SW9       30.24F WCI   1
FORT DODGE *   PTCLDY    12  10  92 S7        30.30F WCI   2
MASON CITY     PTCLDY     7   4  87 S7        30.29F FOG     WCI  -5
FOREST CITY *  FAIR       7   1  78 CALM      30.27F HAZE
WEBSTER CITY * FOG       10  10 100 S7        30.29F VSB<1/4 WCI   0
IOWA FALLS *   FAIR      11   9  89 S8        30.31F FOG     WCI   0
$$

IAZ007>011-017>019-026>030-037>042-050>054-066-011100-
   NORTHEAST IOWA

CITY           SKY/WX    TMP DP  RH WIND       PRES   REMARKS
CEDAR RAPIDS   CLOUDY    12  10  92 SE5       30.35F FOG     WCI   4
CHARLES CITY * MOCLDY     9   7  92 S10       30.31F WCI  -6
CLINTON *      CLOUDY    10   9  92 CALM      30.40F
DECORAH *      CLOUDY    12   9  85 S5        30.31S WCI   4
DUBUQUE        CLOUDY    13  10  88 CALM      30.34F FOG
MONTICELLO *   CLOUDY     9   7  92 S3        30.37F
OELWEIN *      CLOUDY    12   9  85 S7        30.34F FOG     WCI   2
WATERLOO       CLOUDY    15  12  88 S6        30.33F WCI   6
$$

IAZ064-065-067-068-078-011100-
   EAST CENTRAL IOWA

CITY           SKY/WX    TMP DP  RH WIND       PRES   REMARKS
DAVENPORT      CLOUDY     8   4  83 CALM      30.38F FOG
IOWA CITY      CLOUDY    14  12  92 CALM      30.40F FOG
MT. PLEASANT * CLOUDY    10   7  89 CALM      30.38S FOG
MUSCATINE *    CLOUDY     9   7  92 CALM      30.40F FOG
QUAD CITIES    CLOUDY     6   1  80 CALM      30.38F
$$

IAZ062-063-075>077-085>089-095>099-011100-
   SOUTHEAST IOWA

CITY           SKY/WX    TMP DP  RH WIND       PRES   REMARKS
BURLINGTON     CLOUDY    20  17  88 CALM      30.36F
FAIRFIELD *    CLOUDY    12   9  85 N5        30.37F WCI   4
FORT MADISON * CLOUDY    19  18  93 CALM      30.37F
KEOKUK *       CLOUDY    21  19  93 CALM      30.36S
OSKALOOSA *    LGT SNOW  15  13  92 CALM      30.35F
CENTERVILLE *  CLOUDY    16  16 100 CALM      30.35F
OTTUMWA        CLOUDY    14  11  87 CALM      30.35F FOG
WASHINGTON *   CLOUDY    12  12 100 CALM      30.38S FOG
$$

ABBREVIATIONS USED IN REMARKS
   TC - TEMPERATURES IN CELSIUS
  WCI - WIND CHILL INDEX
   HX - HEAT INDEX
  VSB - VISIBILITY
$$



USA.gov is the U.S. government's official web portal to all federal, state and local government web resources and services.